This is the latest recevied weather packets stored in our database for station/object KN6KS. If no packets are shown the sender has not sent any weather packets the latest 10 day(s).
| Time | Temp. | Humidity | Pressure | Rain* | Wind** | Luminosity | Snow |
|---|---|---|---|---|---|---|---|
| 1777474507 | 15.56° C | 48% | 1017.3 hPa | 0 mm | - | 177 W/m² | - |
| 1777474204 | 15° C | 49% | 1017.5 hPa | 0 mm | - | 56 W/m² | - |
| 1777473901 | 15° C | 50% | 1017.5 hPa | 0 mm | - | 55 W/m² | - |
| 1777473599 | 15° C | 50% | 1017.4 hPa | 0 mm | - | 57 W/m² | - |
| 1777473295 | 15° C | 51% | 1017.3 hPa | 0 mm | - | 58 W/m² | - |
| 1777472990 | 13.33° C | 54% | 1017.3 hPa | 0 mm | - | 119 W/m² | - |
| 1777472687 | 12.78° C | 56% | 1017.4 hPa | 0 mm | - | 115 W/m² | - |
| 1777472383 | 12.22° C | 55% | 1017.3 hPa | 0 mm | - | 72 W/m² | - |
| 1777472082 | 11.67° C | 56% | 1017.3 hPa | 0 mm | - | 58 W/m² | - |
| 1777471776 | 11.67° C | 59% | 1017.4 hPa | 0 mm | - | 54 W/m² | - |
| 1777471473 | 11.67° C | 59% | 1017.2 hPa | 0 mm | - | 49 W/m² | - |
| 1777471170 | 10.56° C | 59% | 1017.4 hPa | 0 mm | - | 45 W/m² | - |
| 1777470867 | 10.56° C | 61% | 1017.6 hPa | 0 mm | - | 40 W/m² | - |
| 1777470564 | 10° C | 63% | 1017.2 hPa | 0 mm | - | 35 W/m² | - |
| 1777470260 | 10° C | 63% | 1017.4 hPa | 0 mm | - | 32 W/m² | - |
| 1777469956 | 10° C | 63% | 1017.3 hPa | 0 mm | - | 27 W/m² | - |
| 1777469652 | 9.44° C | 64% | 1017.3 hPa | 0 mm | - | 23 W/m² | - |
| 1777469347 | 9.44° C | 65% | 1017.3 hPa | 0 mm | - | 19 W/m² | - |
| 1777469044 | 8.89° C | 66% | 1017.1 hPa | 0 mm | - | 14 W/m² | - |
| 1777468738 | 8.89° C | 65% | 1017.4 hPa | 0 mm | - | 10 W/m² | - |
| 1777468435 | 8.89° C | 65% | 1017.3 hPa | 0 mm | - | 6 W/m² | - |
| 1777468130 | 9.44° C | 63% | 1017.2 hPa | 0 mm | - | 4 W/m² | - |
| 1777467828 | 9.44° C | 63% | 1017.3 hPa | 0 mm | - | 1 W/m² | - |
| 1777467523 | 9.44° C | 63% | 1017.1 hPa | 0 mm | - | 0 W/m² | - |
| 1777467218 | 9.44° C | 62% | 1017.2 hPa | 0 mm | - | 0 W/m² | - |
* Rain latest hour (hover to see other rain measurements)
** Current wind speed in m/s (hover to see current wind gust speed)